owner,sensor,date,latitude,longitude,vertical_datum,wind_speed,wind_to_direction,wind_speed_of_gust,qcFlag 
TCOON,ioos:station:TCOON:518:1,2016-06-01T00:00:00Z,29.5150,-94.5133,0.0,99.0,-9999.0,99.0,'11144222,99999999,11144222' 
TCOON,ioos:station:TCOON:518:1,2016-06-01T00:06:00Z,29.5150,-94.5133,0.0,99.0,-9999.0,99.0,'11144222,99999999,11144222' 
TCOON,ioos:station:TCOON:518:1,2016-06-01T00:12:00Z,29.5150,-94.5133,0.0,99.0,-9999.0,99.0,'11144222,99999999,11144222' 
TCOON,ioos:station:TCOON:518:1,2016-06-01T00:18:00Z,29.5150,-94.5133,0.0,5.6,163.0,7.9,'1111122,1111122,1111122' 
TCOON,ioos:station:TCOON:518:1,2016-06-01T00:24:00Z,29.5150,-94.5133,0.0,6.0,161.0,7.2,'11111222,11111222,11111222' 
TCOON,ioos:station:TCOON:518:1,2016-06-01T00:30:00Z,29.5150,-94.5133,0.0,5.0,166.0,7.7,'11111222,11111222,11111222' 
TCOON,ioos:station:TCOON:518:1,2016-06-01T00:36:00Z,29.5150,-94.5133,0.0,5.0,171.0,7.6,'11111222,11111222,11111222' 
TCOON,ioos:station:TCOON:518:1,2016-06-01T00:42:00Z,29.5150,-94.5133,0.0,5.0,162.0,6.1,'11111222,11111222,11111222' 
TCOON,ioos:station:TCOON:518:1,2016-06-01T00:48:00Z,29.5150,-94.5133,0.0,4.7,163.0,6.6,'11111222,11111222,11111222' 
TCOON,ioos:station:TCOON:518:1,2016-06-01T00:54:00Z,29.5150,-94.5133,0.0,99.0,-9999.0,99.0,'11144222,99999999,11144222' 
TCOON,ioos:station:TCOON:518:1,2016-06-01T01:00:00Z,29.5150,-94.5133,0.0,99.0,-9999.0,99.0,'11144222,99999999,11144222' 
TCOON,ioos:station:TCOON:518:1,2016-06-01T01:06:00Z,29.5150,-94.5133,0.0,5.9,165.0,7.0,'11111222,11111222,11111222' 
TCOON,ioos:station:TCOON:518:1,2016-06-01T01:12:00Z,29.5150,-94.5133,0.0,4.8,162.0,6.6,'11111222,11111222,11111222' 
TCOON,ioos:station:TCOON:518:1,2016-06-01T01:18:00Z,29.5150,-94.5133,0.0,4.8,162.0,6.6,'1111122,1111122,1111122' 
TCOON,ioos:station:TCOON:518:1,2016-06-01T01:24:00Z,29.5150,-94.5133,0.0,99.0,-9999.0,99.0,'11144222,99999999,11144222' 
TCOON,ioos:station:TCOON:518:1,2016-06-01T01:30:00Z,29.5150,-94.5133,0.0,99.0,-9999.0,99.0,'11144222,99999999,11144222' 
TCOON,ioos:station:TCOON:518:1,2016-06-01T01:36:00Z,29.5150,-94.5133,0.0,99.0,-9999.0,99.0,'11144222,99999999,11144222' 
TCOON,ioos:station:TCOON:518:1,2016-06-01T01:42:00Z,29.5150,-94.5133,0.0,99.0,-9999.0,99.0,'11144222,99999999,11144222' 
TCOON,ioos:station:TCOON:518:1,2016-06-01T01:48:00Z,29.5150,-94.5133,0.0,99.0,-9999.0,99.0,'11144222,99999999,11144222' 
TCOON,ioos:station:TCOON:518:1,2016-06-01T01:54:00Z,29.5150,-94.5133,0.0,99.0,-9999.0,99.0,'11144222,99999999,11144222' 
TCOON,ioos:station:TCOON:518:1,2016-06-01T02:00:00Z,29.5150,-94.5133,0.0,99.0,-9999.0,99.0,'11144222,99999999,11144222' 
TCOON,ioos:station:TCOON:518:1,2016-06-01T02:06:00Z,29.5150,-94.5133,0.0,99.0,-9999.0,99.0,'11144222,99999999,11144222' 
TCOON,ioos:station:TCOON:518:1,2016-06-01T02:12:00Z,29.5150,-94.5133,0.0,99.0,-9999.0,99.0,'11144222,99999999,11144222' 
TCOON,ioos:station:TCOON:518:1,2016-06-01T02:18:00Z,29.5150,-94.5133,0.0,3.2,176.0,4.7,'1111122,1111122,1111122' 
TCOON,ioos:station:TCOON:518:1,2016-06-01T02:24:00Z,29.5150,-94.5133,0.0,99.0,-9999.0,99.0,'11144222,99999999,11144222' 
TCOON,ioos:station:TCOON:518:1,2016-06-01T02:30:00Z,29.5150,-94.5133,0.0,99.0,-9999.0,99.0,'11144222,99999999,11144222' 
TCOON,ioos:station:TCOON:518:1,2016-06-01T02:36:00Z,29.5150,-94.5133,0.0,99.0,-9999.0,99.0,'11144222,99999999,11144222' 
TCOON,ioos:station:TCOON:518:1,2016-06-01T02:42:00Z,29.5150,-94.5133,0.0,99.0,-9999.0,99.0,'11144222,99999999,11144222' 
TCOON,ioos:station:TCOON:518:1,2016-06-01T02:48:00Z,29.5150,-94.5133,0.0,99.0,-9999.0,99.0,'11144222,99999999,11144222' 
TCOON,ioos:station:TCOON:518:1,2016-06-01T02:54:00Z,29.5150,-94.5133,0.0,99.0,-9999.0,99.0,'11144222,99999999,11144222' 
TCOON,ioos:station:TCOON:518:1,2016-06-01T03:00:00Z,29.5150,-94.5133,0.0,99.0,-9999.0,99.0,'11144222,99999999,11144222' 
TCOON,ioos:station:TCOON:518:1,2016-06-01T03:06:00Z,29.5150,-94.5133,0.0,99.0,-9999.0,99.0,'11144222,99999999,11144222' 
TCOON,ioos:station:TCOON:518:1,2016-06-01T03:12:00Z,29.5150,-94.5133,0.0,99.0,-9999.0,99.0,'11144222,99999999,11144222' 
TCOON,ioos:station:TCOON:518:1,2016-06-01T03:18:00Z,29.5150,-94.5133,0.0,3.9,206.0,5.8,'1111122,1111122,1111122' 
TCOON,ioos:station:TCOON:518:1,2016-06-01T03:24:00Z,29.5150,-94.5133,0.0,2.7,189.0,4.4,'11111222,11111222,11111222' 
TCOON,ioos:station:TCOON:518:1,2016-06-01T03:30:00Z,29.5150,-94.5133,0.0,2.5,184.0,4.1,'11111222,11111222,11111222' 
TCOON,ioos:station:TCOON:518:1,2016-06-01T03:36:00Z,29.5150,-94.5133,0.0,2.8,180.0,4.0,'11111222,11111222,11111222' 
TCOON,ioos:station:TCOON:518:1,2016-06-01T03:42:00Z,29.5150,-94.5133,0.0,2.4,184.0,4.6,'11111222,11111222,11111222' 
TCOON,ioos:station:TCOON:518:1,2016-06-01T03:48:00Z,29.5150,-94.5133,0.0,3.6,178.0,4.9,'11111222,11111222,11111222' 
TCOON,ioos:station:TCOON:518:1,2016-06-01T03:54:00Z,29.5150,-94.5133,0.0,3.4,185.0,5.2,'11111222,11111222,11111222' 
TCOON,ioos:station:TCOON:518:1,2016-06-01T04:00:00Z,29.5150,-94.5133,0.0,2.8,181.0,5.0,'11111222,11111222,11111222' 
TCOON,ioos:station:TCOON:518:1,2016-06-01T04:06:00Z,29.5150,-94.5133,0.0,3.1,182.0,4.3,'11111222,11111222,11111222' 
TCOON,ioos:station:TCOON:518:1,2016-06-01T04:12:00Z,29.5150,-94.5133,0.0,2.8,177.0,4.2,'11111222,11111222,11111222' 
TCOON,ioos:station:TCOON:518:1,2016-06-01T04:18:00Z,29.5150,-94.5133,0.0,2.8,177.0,4.2,'1111122,1111122,1111122' 
TCOON,ioos:station:TCOON:518:1,2016-06-01T04:24:00Z,29.5150,-94.5133,0.0,4.6,174.0,5.9,'11111222,11111222,11111222' 
TCOON,ioos:station:TCOON:518:1,2016-06-01T04:30:00Z,29.5150,-94.5133,0.0,5.0,177.0,6.5,'11111222,11111222,11111222' 
TCOON,ioos:station:TCOON:518:1,2016-06-01T04:36:00Z,29.5150,-94.5133,0.0,5.9,194.0,8.4,'11111222,11111222,11111222' 
TCOON,ioos:station:TCOON:518:1,2016-06-01T04:42:00Z,29.5150,-94.5133,0.0,5.9,192.0,7.8,'11111222,11111222,11111222' 
TCOON,ioos:station:TCOON:518:1,2016-06-01T04:48:00Z,29.5150,-94.5133,0.0,5.0,185.0,7.4,'11111222,11111222,11111222' 
TCOON,ioos:station:TCOON:518:1,2016-06-01T04:54:00Z,29.5150,-94.5133,0.0,4.7,190.0,6.9,'11111222,11111222,11111222' 
TCOON,ioos:station:TCOON:518:1,2016-06-01T05:00:00Z,29.5150,-94.5133,0.0,4.4,189.0,7.0,'11111222,11111222,11111222' 
TCOON,ioos:station:TCOON:518:1,2016-06-01T05:06:00Z,29.5150,-94.5133,0.0,5.4,196.0,7.5,'11111222,11111222,11111222' 
TCOON,ioos:station:TCOON:518:1,2016-06-01T05:12:00Z,29.5150,-94.5133,0.0,4.3,182.0,7.2,'11111222,11111222,11111222' 
TCOON,ioos:station:TCOON:518:1,2016-06-01T05:18:00Z,29.5150,-94.5133,0.0,4.3,182.0,7.2,'1111122,1111122,1111122' 
TCOON,ioos:station:TCOON:518:1,2016-06-01T05:24:00Z,29.5150,-94.5133,0.0,3.6,183.0,6.3,'11111222,11111222,11111222' 
TCOON,ioos:station:TCOON:518:1,2016-06-01T05:30:00Z,29.5150,-94.5133,0.0,4.0,181.0,6.8,'11111222,11111222,11111222' 
TCOON,ioos:station:TCOON:518:1,2016-06-01T05:36:00Z,29.5150,-94.5133,0.0,3.6,179.0,5.8,'11111222,11111222,11111222' 
TCOON,ioos:station:TCOON:518:1,2016-06-01T05:42:00Z,29.5150,-94.5133,0.0,2.2,182.0,4.6,'11111222,11111222,11111222' 
TCOON,ioos:station:TCOON:518:1,2016-06-01T05:48:00Z,29.5150,-94.5133,0.0,2.7,180.0,4.2,'11111222,11111222,11111222' 
TCOON,ioos:station:TCOON:518:1,2016-06-01T05:54:00Z,29.5150,-94.5133,0.0,2.5,184.0,3.7,'11111222,11111222,11111222' 
TCOON,ioos:station:TCOON:518:1,2016-06-01T06:00:00Z,29.5150,-94.5133,0.0,4.8,178.0,6.5,'11111222,11111222,11111222' 
TCOON,ioos:station:TCOON:518:1,2016-06-01T06:06:00Z,29.5150,-94.5133,0.0,4.6,184.0,6.1,'11111222,11111222,11111222' 
TCOON,ioos:station:TCOON:518:1,2016-06-01T06:12:00Z,29.5150,-94.5133,0.0,5.1,191.0,7.2,'11111222,11111222,11111222' 
TCOON,ioos:station:TCOON:518:1,2016-06-01T06:18:00Z,29.5150,-94.5133,0.0,4.0,186.0,7.8,'11111222,11111222,11111222' 
TCOON,ioos:station:TCOON:518:1,2016-06-01T06:24:00Z,29.5150,-94.5133,0.0,4.0,186.0,7.8,'1111122,1111122,1111122' 
TCOON,ioos:station:TCOON:518:1,2016-06-01T06:30:00Z,29.5150,-94.5133,0.0,3.3,192.0,5.8,'11111222,11111222,11111222' 
TCOON,ioos:station:TCOON:518:1,2016-06-01T06:36:00Z,29.5150,-94.5133,0.0,4.4,177.0,6.7,'11111222,11111222,11111222' 
TCOON,ioos:station:TCOON:518:1,2016-06-01T06:42:00Z,29.5150,-94.5133,0.0,4.6,181.0,6.7,'11111222,11111222,11111222' 
TCOON,ioos:station:TCOON:518:1,2016-06-01T06:48:00Z,29.5150,-94.5133,0.0,5.4,171.0,7.0,'11111222,11111222,11111222' 
TCOON,ioos:station:TCOON:518:1,2016-06-01T06:54:00Z,29.5150,-94.5133,0.0,4.6,173.0,6.1,'11111222,11111222,11111222' 
TCOON,ioos:station:TCOON:518:1,2016-06-01T07:00:00Z,29.5150,-94.5133,0.0,4.8,166.0,6.7,'11111222,11111222,11111222' 
TCOON,ioos:station:TCOON:518:1,2016-06-01T07:06:00Z,29.5150,-94.5133,0.0,5.4,162.0,6.5,'11111222,11111222,11111222' 
TCOON,ioos:station:TCOON:518:1,2016-06-01T07:12:00Z,29.5150,-94.5133,0.0,4.9,164.0,6.8,'11111222,11111222,11111222' 
TCOON,ioos:station:TCOON:518:1,2016-06-01T07:18:00Z,29.5150,-94.5133,0.0,5.2,165.0,6.9,'11111222,11111222,11111222' 
TCOON,ioos:station:TCOON:518:1,2016-06-01T07:24:00Z,29.5150,-94.5133,0.0,5.2,165.0,6.9,'1111122,1111122,1111122' 
TCOON,ioos:station:TCOON:518:1,2016-06-01T07:30:00Z,29.5150,-94.5133,0.0,4.9,160.0,6.6,'11111222,11111222,11111222' 
TCOON,ioos:station:TCOON:518:1,2016-06-01T07:36:00Z,29.5150,-94.5133,0.0,4.8,157.0,6.3,'11111222,11111222,11111222' 
TCOON,ioos:station:TCOON:518:1,2016-06-01T07:42:00Z,29.5150,-94.5133,0.0,4.9,152.0,6.5,'11111222,11111222,11111222' 
TCOON,ioos:station:TCOON:518:1,2016-06-01T07:48:00Z,29.5150,-94.5133,0.0,5.7,152.0,6.9,'11111222,11111222,11111222' 
TCOON,ioos:station:TCOON:518:1,2016-06-01T07:54:00Z,29.5150,-94.5133,0.0,5.2,155.0,7.0,'11111222,11111222,11111222' 
TCOON,ioos:station:TCOON:518:1,2016-06-01T08:00:00Z,29.5150,-94.5133,0.0,4.2,163.0,6.6,'11111222,11111222,11111222' 
TCOON,ioos:station:TCOON:518:1,2016-06-01T08:06:00Z,29.5150,-94.5133,0.0,4.0,164.0,5.3,'11111222,11111222,11111222' 
TCOON,ioos:station:TCOON:518:1,2016-06-01T08:12:00Z,29.5150,-94.5133,0.0,4.0,167.0,5.7,'11111222,11111222,11111222' 
TCOON,ioos:station:TCOON:518:1,2016-06-01T08:18:00Z,29.5150,-94.5133,0.0,3.9,169.0,5.1,'11111222,11111222,11111222' 
TCOON,ioos:station:TCOON:518:1,2016-06-01T08:24:00Z,29.5150,-94.5133,0.0,3.8,175.0,5.0,'11111222,11111222,11111222' 
TCOON,ioos:station:TCOON:518:1,2016-06-01T08:30:00Z,29.5150,-94.5133,0.0,4.2,163.0,5.8,'11111222,11111222,11111222' 
TCOON,ioos:station:TCOON:518:1,2016-06-01T08:36:00Z,29.5150,-94.5133,0.0,4.7,164.0,5.6,'11111222,11111222,11111222' 
TCOON,ioos:station:TCOON:518:1,2016-06-01T08:42:00Z,29.5150,-94.5133,0.0,4.7,164.0,5.6,'1111122,1111122,1111122' 
TCOON,ioos:station:TCOON:518:1,2016-06-01T08:48:00Z,29.5150,-94.5133,0.0,6.2,160.0,7.0,'11111222,11111222,11111222' 
TCOON,ioos:station:TCOON:518:1,2016-06-01T08:54:00Z,29.5150,-94.5133,0.0,4.9,172.0,6.9,'11111222,11111222,11111222' 
TCOON,ioos:station:TCOON:518:1,2016-06-01T09:00:00Z,29.5150,-94.5133,0.0,4.6,178.0,6.8,'11111222,11111222,11111222' 
TCOON,ioos:station:TCOON:518:1,2016-06-01T09:06:00Z,29.5150,-94.5133,0.0,3.4,177.0,6.7,'11111222,11111222,11111222' 
TCOON,ioos:station:TCOON:518:1,2016-06-01T09:12:00Z,29.5150,-94.5133,0.0,5.0,170.0,6.3,'11111222,11111222,11111222' 
TCOON,ioos:station:TCOON:518:1,2016-06-01T09:18:00Z,29.5150,-94.5133,0.0,4.5,172.0,6.0,'11111222,11111222,11111222' 
TCOON,ioos:station:TCOON:518:1,2016-06-01T09:24:00Z,29.5150,-94.5133,0.0,3.9,174.0,5.5,'11111222,11111222,11111222' 
TCOON,ioos:station:TCOON:518:1,2016-06-01T09:30:00Z,29.5150,-94.5133,0.0,4.0,177.0,6.0,'11111222,11111222,11111222' 
TCOON,ioos:station:TCOON:518:1,2016-06-01T09:36:00Z,29.5150,-94.5133,0.0,4.0,177.0,6.0,'1111122,1111122,1111122' 
TCOON,ioos:station:TCOON:518:1,2016-06-01T09:42:00Z,29.5150,-94.5133,0.0,3.9,180.0,5.7,'11111222,11111222,11111222' 
TCOON,ioos:station:TCOON:518:1,2016-06-01T09:48:00Z,29.5150,-94.5133,0.0,2.7,182.0,5.1,'11111222,11111222,11111222' 
TCOON,ioos:station:TCOON:518:1,2016-06-01T09:54:00Z,29.5150,-94.5133,0.0,3.3,188.0,4.6,'11111222,11111222,11111222' 
TCOON,ioos:station:TCOON:518:1,2016-06-01T10:00:00Z,29.5150,-94.5133,0.0,2.5,186.0,5.0,'11111222,11111222,11111222' 
TCOON,ioos:station:TCOON:518:1,2016-06-01T10:06:00Z,29.5150,-94.5133,0.0,2.3,191.0,4.1,'11111222,11111222,11111222' 
TCOON,ioos:station:TCOON:518:1,2016-06-01T10:12:00Z,29.5150,-94.5133,0.0,2.8,187.0,4.5,'11111222,11111222,11111222' 
TCOON,ioos:station:TCOON:518:1,2016-06-01T10:18:00Z,29.5150,-94.5133,0.0,2.6,185.0,3.8,'11111222,11111222,11111222' 
TCOON,ioos:station:TCOON:518:1,2016-06-01T10:24:00Z,29.5150,-94.5133,0.0,3.0,179.0,4.4,'11111222,11111222,11111222' 
TCOON,ioos:station:TCOON:518:1,2016-06-01T10:30:00Z,29.5150,-94.5133,0.0,3.4,176.0,4.5,'11111222,11111222,11111222' 
TCOON,ioos:station:TCOON:518:1,2016-06-01T10:36:00Z,29.5150,-94.5133,0.0,2.9,192.0,4.2,'11111222,11111222,11111222' 
TCOON,ioos:station:TCOON:518:1,2016-06-01T10:42:00Z,29.5150,-94.5133,0.0,2.6,198.0,4.3,'11111222,11111222,11111222' 
TCOON,ioos:station:TCOON:518:1,2016-06-01T10:48:00Z,29.5150,-94.5133,0.0,2.6,198.0,4.3,'1111122,1111122,1111122' 
TCOON,ioos:station:TCOON:518:1,2016-06-01T10:54:00Z,29.5150,-94.5133,0.0,2.3,178.0,3.4,'11111222,11111222,11111222' 
TCOON,ioos:station:TCOON:518:1,2016-06-01T11:00:00Z,29.5150,-94.5133,0.0,2.5,171.0,3.7,'11111222,11111222,11111222' 
TCOON,ioos:station:TCOON:518:1,2016-06-01T11:06:00Z,29.5150,-94.5133,0.0,1.9,175.0,3.0,'11111222,11111222,11111222' 
TCOON,ioos:station:TCOON:518:1,2016-06-01T11:12:00Z,29.5150,-94.5133,0.0,2.4,169.0,3.5,'11111222,11111222,11111222' 
TCOON,ioos:station:TCOON:518:1,2016-06-01T11:18:00Z,29.5150,-94.5133,0.0,2.2,157.0,2.7,'11111222,11111222,11111222' 
TCOON,ioos:station:TCOON:518:1,2016-06-01T11:24:00Z,29.5150,-94.5133,0.0,1.8,172.0,2.7,'11111222,11111222,11111222' 
TCOON,ioos:station:TCOON:518:1,2016-06-01T11:30:00Z,29.5150,-94.5133,0.0,1.8,172.0,2.7,'1111122,1111122,1111122' 
TCOON,ioos:station:TCOON:518:1,2016-06-01T11:36:00Z,29.5150,-94.5133,0.0,3.0,161.0,3.6,'11111222,11111222,11111222' 
TCOON,ioos:station:TCOON:518:1,2016-06-01T11:42:00Z,29.5150,-94.5133,0.0,3.0,162.0,3.7,'11111222,11111222,11111222' 
TCOON,ioos:station:TCOON:518:1,2016-06-01T11:48:00Z,29.5150,-94.5133,0.0,3.3,167.0,4.5,'11111222,11111222,11111222' 
TCOON,ioos:station:TCOON:518:1,2016-06-01T11:54:00Z,29.5150,-94.5133,0.0,3.2,166.0,4.2,'11111222,11111222,11111222' 
TCOON,ioos:station:TCOON:518:1,2016-06-01T12:00:00Z,29.5150,-94.5133,0.0,4.2,167.0,5.3,'11111222,11111222,11111222' 
TCOON,ioos:station:TCOON:518:1,2016-06-01T12:06:00Z,29.5150,-94.5133,0.0,3.4,163.0,5.6,'11111222,11111222,11111222' 
TCOON,ioos:station:TCOON:518:1,2016-06-01T12:12:00Z,29.5150,-94.5133,0.0,3.9,160.0,5.1,'11111222,11111222,11111222' 
TCOON,ioos:station:TCOON:518:1,2016-06-01T12:18:00Z,29.5150,-94.5133,0.0,4.3,164.0,5.0,'11111222,11111222,11111222' 
TCOON,ioos:station:TCOON:518:1,2016-06-01T12:24:00Z,29.5150,-94.5133,0.0,4.3,164.0,5.0,'1111122,1111122,1111122' 
TCOON,ioos:station:TCOON:518:1,2016-06-01T12:30:00Z,29.5150,-94.5133,0.0,3.6,170.0,4.4,'11111222,11111222,11111222' 
TCOON,ioos:station:TCOON:518:1,2016-06-01T12:36:00Z,29.5150,-94.5133,0.0,3.8,163.0,4.4,'11111222,11111222,11111222' 
TCOON,ioos:station:TCOON:518:1,2016-06-01T12:42:00Z,29.5150,-94.5133,0.0,2.3,185.0,4.7,'11111222,11111222,11111222' 
TCOON,ioos:station:TCOON:518:1,2016-06-01T12:48:00Z,29.5150,-94.5133,0.0,2.4,175.0,3.5,'11111222,11111222,11111222' 
TCOON,ioos:station:TCOON:518:1,2016-06-01T12:54:00Z,29.5150,-94.5133,0.0,2.8,168.0,4.1,'11111222,11111222,11111222' 
TCOON,ioos:station:TCOON:518:1,2016-06-01T13:00:00Z,29.5150,-94.5133,0.0,3.4,172.0,5.0,'11111222,11111222,11111222' 
TCOON,ioos:station:TCOON:518:1,2016-06-01T13:06:00Z,29.5150,-94.5133,0.0,3.5,172.0,4.5,'11111222,11111222,11111222' 
TCOON,ioos:station:TCOON:518:1,2016-06-01T13:12:00Z,29.5150,-94.5133,0.0,2.9,171.0,4.1,'11111222,11111222,11111222' 
TCOON,ioos:station:TCOON:518:1,2016-06-01T13:18:00Z,29.5150,-94.5133,0.0,2.3,178.0,3.1,'11111222,11111222,11111222' 
TCOON,ioos:station:TCOON:518:1,2016-06-01T13:24:00Z,29.5150,-94.5133,0.0,3.5,162.0,4.3,'11111222,11111222,11111222' 
TCOON,ioos:station:TCOON:518:1,2016-06-01T13:30:00Z,29.5150,-94.5133,0.0,3.0,157.0,4.1,'11111222,11111222,11111222' 
TCOON,ioos:station:TCOON:518:1,2016-06-01T13:36:00Z,29.5150,-94.5133,0.0,2.4,168.0,3.7,'11111222,11111222,11111222' 
TCOON,ioos:station:TCOON:518:1,2016-06-01T13:42:00Z,29.5150,-94.5133,0.0,2.4,168.0,3.7,'1111122,1111122,1111122' 
TCOON,ioos:station:TCOON:518:1,2016-06-01T13:48:00Z,29.5150,-94.5133,0.0,2.6,143.0,3.2,'11111222,11111222,11111222' 
TCOON,ioos:station:TCOON:518:1,2016-06-01T13:54:00Z,29.5150,-94.5133,0.0,1.9,174.0,3.8,'11111222,11111222,11111222' 
TCOON,ioos:station:TCOON:518:1,2016-06-01T14:00:00Z,29.5150,-94.5133,0.0,3.1,156.0,4.0,'11111222,11111222,11111222' 
TCOON,ioos:station:TCOON:518:1,2016-06-01T14:06:00Z,29.5150,-94.5133,0.0,1.9,179.0,3.9,'11111222,11111222,11111222' 
TCOON,ioos:station:TCOON:518:1,2016-06-01T14:12:00Z,29.5150,-94.5133,0.0,3.4,150.0,4.1,'11111222,11111222,11111222' 
TCOON,ioos:station:TCOON:518:1,2016-06-01T14:18:00Z,29.5150,-94.5133,0.0,2.7,163.0,3.5,'11111222,11111222,11111222' 
TCOON,ioos:station:TCOON:518:1,2016-06-01T14:24:00Z,29.5150,-94.5133,0.0,2.2,152.0,3.2,'11111222,11111222,11111222' 
TCOON,ioos:station:TCOON:518:1,2016-06-01T14:30:00Z,29.5150,-94.5133,0.0,1.8,207.0,5.6,'11111222,11111222,11111222' 
TCOON,ioos:station:TCOON:518:1,2016-06-01T14:36:00Z,29.5150,-94.5133,0.0,4.5,236.0,6.8,'11111222,11111222,11111222' 
TCOON,ioos:station:TCOON:518:1,2016-06-01T14:42:00Z,29.5150,-94.5133,0.0,4.5,236.0,6.8,'1111122,1111122,1111122' 
TCOON,ioos:station:TCOON:518:1,2016-06-01T14:48:00Z,29.5150,-94.5133,0.0,1.6,260.0,5.7,'11111222,11111222,11111222' 
TCOON,ioos:station:TCOON:518:1,2016-06-01T14:54:00Z,29.5150,-94.5133,0.0,2.2,254.0,3.5,'11111222,11111222,11111222' 
TCOON,ioos:station:TCOON:518:1,2016-06-01T15:00:00Z,29.5150,-94.5133,0.0,1.9,235.0,2.8,'11111222,11111222,11111222' 
TCOON,ioos:station:TCOON:518:1,2016-06-01T15:06:00Z,29.5150,-94.5133,0.0,3.4,215.0,6.4,'11111222,11111222,11111222' 
TCOON,ioos:station:TCOON:518:1,2016-06-01T15:12:00Z,29.5150,-94.5133,0.0,3.5,201.0,6.6,'11111222,11111222,11111222' 
TCOON,ioos:station:TCOON:518:1,2016-06-01T15:18:00Z,29.5150,-94.5133,0.0,3.7,209.0,6.8,'11111222,11111222,11111222' 
TCOON,ioos:station:TCOON:518:1,2016-06-01T15:24:00Z,29.5150,-94.5133,0.0,3.7,209.0,6.8,'1111122,1111122,1111122' 
TCOON,ioos:station:TCOON:518:1,2016-06-01T15:30:00Z,29.5150,-94.5133,0.0,3.3,228.0,6.8,'11111222,11111222,11111222' 
TCOON,ioos:station:TCOON:518:1,2016-06-01T15:36:00Z,29.5150,-94.5133,0.0,3.4,259.0,5.4,'11111222,11111222,11111222' 
TCOON,ioos:station:TCOON:518:1,2016-06-01T15:42:00Z,29.5150,-94.5133,0.0,2.8,244.0,5.5,'11111222,11111222,11111222' 
TCOON,ioos:station:TCOON:518:1,2016-06-01T15:48:00Z,29.5150,-94.5133,0.0,4.3,262.0,6.3,'11111222,11111222,11111222' 
TCOON,ioos:station:TCOON:518:1,2016-06-01T15:54:00Z,29.5150,-94.5133,0.0,3.1,280.0,6.0,'11111222,11111222,11111222' 
TCOON,ioos:station:TCOON:518:1,2016-06-01T16:00:00Z,29.5150,-94.5133,0.0,4.5,295.0,6.9,'11111222,11111222,11111222' 
TCOON,ioos:station:TCOON:518:1,2016-06-01T16:06:00Z,29.5150,-94.5133,0.0,4.5,296.0,6.2,'11111222,11111222,11111222' 
TCOON,ioos:station:TCOON:518:1,2016-06-01T16:12:00Z,29.5150,-94.5133,0.0,1.3,209.0,5.1,'11111222,11111222,11111222' 
TCOON,ioos:station:TCOON:518:1,2016-06-01T16:18:00Z,29.5150,-94.5133,0.0,2.8,2.0,4.7,'11111222,11111222,11111222' 
TCOON,ioos:station:TCOON:518:1,2016-06-01T16:24:00Z,29.5150,-94.5133,0.0,4.7,288.0,6.3,'11111222,11111222,11111222' 
TCOON,ioos:station:TCOON:518:1,2016-06-01T16:30:00Z,29.5150,-94.5133,0.0,3.6,324.0,4.8,'11111222,11111222,11111222' 
TCOON,ioos:station:TCOON:518:1,2016-06-01T16:36:00Z,29.5150,-94.5133,0.0,3.6,324.0,4.8,'1111122,1111122,1111122' 
TCOON,ioos:station:TCOON:518:1,2016-06-01T16:42:00Z,29.5150,-94.5133,0.0,4.1,6.0,4.5,'11111222,11111222,11111222' 
TCOON,ioos:station:TCOON:518:1,2016-06-01T16:48:00Z,29.5150,-94.5133,0.0,4.6,327.0,6.1,'11111222,11111222,11111222' 
TCOON,ioos:station:TCOON:518:1,2016-06-01T16:54:00Z,29.5150,-94.5133,0.0,2.8,243.0,4.5,'11111222,11111222,11111222' 
TCOON,ioos:station:TCOON:518:1,2016-06-01T17:00:00Z,29.5150,-94.5133,0.0,2.8,257.0,4.0,'11111222,11111222,11111222' 
TCOON,ioos:station:TCOON:518:1,2016-06-01T17:06:00Z,29.5150,-94.5133,0.0,1.9,251.0,3.3,'11111222,11111222,11111222' 
TCOON,ioos:station:TCOON:518:1,2016-06-01T17:12:00Z,29.5150,-94.5133,0.0,0.5,182.0,1.7,'11111222,11111222,11111222' 
TCOON,ioos:station:TCOON:518:1,2016-06-01T17:18:00Z,29.5150,-94.5133,0.0,0.8,65.0,1.1,'11111222,11111222,11111222' 
TCOON,ioos:station:TCOON:518:1,2016-06-01T17:24:00Z,29.5150,-94.5133,0.0,2.1,35.0,3.2,'11111222,11111222,11111222' 
TCOON,ioos:station:TCOON:518:1,2016-06-01T17:30:00Z,29.5150,-94.5133,0.0,1.7,16.0,2.7,'11111222,11111222,11111222' 
TCOON,ioos:station:TCOON:518:1,2016-06-01T17:36:00Z,29.5150,-94.5133,0.0,3.3,51.0,4.2,'11111222,11111222,11111222' 
TCOON,ioos:station:TCOON:518:1,2016-06-01T17:42:00Z,29.5150,-94.5133,0.0,3.3,51.0,4.2,'1111122,1111122,1111122' 
TCOON,ioos:station:TCOON:518:1,2016-06-01T17:48:00Z,29.5150,-94.5133,0.0,1.9,217.0,3.4,'11111222,11111222,11111222' 
TCOON,ioos:station:TCOON:518:1,2016-06-01T17:54:00Z,29.5150,-94.5133,0.0,3.6,70.0,4.6,'11111222,11111222,11111222' 
TCOON,ioos:station:TCOON:518:1,2016-06-01T18:00:00Z,29.5150,-94.5133,0.0,4.6,159.0,5.4,'11111222,11111222,11111222' 
TCOON,ioos:station:TCOON:518:1,2016-06-01T18:06:00Z,29.5150,-94.5133,0.0,2.9,194.0,6.3,'11111222,11111222,11111222' 
TCOON,ioos:station:TCOON:518:1,2016-06-01T18:12:00Z,29.5150,-94.5133,0.0,0.7,82.0,3.1,'11111222,11111222,11111222' 
TCOON,ioos:station:TCOON:518:1,2016-06-01T18:18:00Z,29.5150,-94.5133,0.0,1.3,150.0,2.8,'11111222,11111222,11111222' 
TCOON,ioos:station:TCOON:518:1,2016-06-01T18:24:00Z,29.5150,-94.5133,0.0,1.3,150.0,2.8,'1111122,1111122,1111122' 
TCOON,ioos:station:TCOON:518:1,2016-06-01T18:30:00Z,29.5150,-94.5133,0.0,2.4,141.0,3.3,'11111222,11111222,11111222' 
TCOON,ioos:station:TCOON:518:1,2016-06-01T18:36:00Z,29.5150,-94.5133,0.0,4.2,118.0,4.6,'11111222,11111222,11111222' 
TCOON,ioos:station:TCOON:518:1,2016-06-01T18:42:00Z,29.5150,-94.5133,0.0,3.2,115.0,4.0,'11111222,11111222,11111222' 
TCOON,ioos:station:TCOON:518:1,2016-06-01T18:48:00Z,29.5150,-94.5133,0.0,1.6,155.0,3.0,'11111222,11111222,11111222' 
TCOON,ioos:station:TCOON:518:1,2016-06-01T18:54:00Z,29.5150,-94.5133,0.0,1.0,187.0,1.8,'11111222,11111222,11111222' 
TCOON,ioos:station:TCOON:518:1,2016-06-01T19:00:00Z,29.5150,-94.5133,0.0,1.8,122.0,2.1,'11111222,11111222,11111222' 
TCOON,ioos:station:TCOON:518:1,2016-06-01T19:06:00Z,29.5150,-94.5133,0.0,3.3,88.0,4.8,'11111222,11111222,11111222' 
TCOON,ioos:station:TCOON:518:1,2016-06-01T19:12:00Z,29.5150,-94.5133,0.0,3.7,77.0,4.9,'11111222,11111222,11111222' 
TCOON,ioos:station:TCOON:518:1,2016-06-01T19:18:00Z,29.5150,-94.5133,0.0,4.1,73.0,4.5,'11111222,11111222,11111222' 
TCOON,ioos:station:TCOON:518:1,2016-06-01T19:24:00Z,29.5150,-94.5133,0.0,3.5,75.0,4.5,'11111222,11111222,11111222' 
TCOON,ioos:station:TCOON:518:1,2016-06-01T19:30:00Z,29.5150,-94.5133,0.0,4.1,69.0,4.6,'11111222,11111222,11111222' 
TCOON,ioos:station:TCOON:518:1,2016-06-01T19:36:00Z,29.5150,-94.5133,0.0,4.1,69.0,4.6,'1111122,1111122,1111122' 
TCOON,ioos:station:TCOON:518:1,2016-06-01T19:42:00Z,29.5150,-94.5133,0.0,3.8,76.0,4.5,'11111222,11111222,11111222' 
TCOON,ioos:station:TCOON:518:1,2016-06-01T19:48:00Z,29.5150,-94.5133,0.0,3.7,104.0,4.3,'11111222,11111222,11111222' 
TCOON,ioos:station:TCOON:518:1,2016-06-01T19:54:00Z,29.5150,-94.5133,0.0,4.3,101.0,5.5,'11111222,11111222,11111222' 
TCOON,ioos:station:TCOON:518:1,2016-06-01T20:00:00Z,29.5150,-94.5133,0.0,4.9,95.0,6.1,'11111222,11111222,11111222' 
TCOON,ioos:station:TCOON:518:1,2016-06-01T20:06:00Z,29.5150,-94.5133,0.0,5.1,105.0,5.8,'11111222,11111222,11111222' 
TCOON,ioos:station:TCOON:518:1,2016-06-01T20:12:00Z,29.5150,-94.5133,0.0,5.4,108.0,6.4,'11111222,11111222,11111222' 
TCOON,ioos:station:TCOON:518:1,2016-06-01T20:18:00Z,29.5150,-94.5133,0.0,5.9,106.0,6.9,'11111222,11111222,11111222' 